User: anonymous   Login
Location: Unspecified
(0.0000°N, 0.0000°E)
Time: 01:57:33
(UTC+00:00)
Language:

STARLINK-5979 - Orbit

View from above orbital plane
View from above orbital plane
View from above satellite
View from above satellite

Ground track
Ground track

The orbit is defined by the following mean orbital elements,

1 56345U          26145.46626102 +.00000000 +00000-0 +73471-4 0 00007
2 56345  97.4473 145.3674 0002204  93.7998 266.3481 15.05648490    04
Epoch (UTC): 25 May 2026 11:11:24
Eccentricity: 0.0002204
inclination: 97.4473°
perigee height: 548 km
apogee height: 551 km
right ascension of ascending node: 145.3674°
argument of perigee: 93.7998°
revolutions per day: 15.05648490
mean anomaly at epoch: 266.3481°

The dashed part of the orbit path shows where the satellite is in the earth's shadow,  

DLR